Regional Weather Roundup
Issued by NWS

Home | Current Version | Previous Version | Graphics & Text | Print | Product List | Glossary On
Versions: 1 2 3 4 5 6 7 8 9 10 11 12 13 14 15 16 17 18 19 20 21 22 23 24 25 26 27 28 29 30 31 32 33 34 35 36 37 38 39 40 41 42 43 44 45 46 47 48 49 50
096
ASUS43 KBIS 260110
RWRND

NORTH DAKOTA REGIONAL WEATHER ROUNDUP
NATIONAL WEATHER SERVICE BISMARCK ND
800 PM CDT TUE JUL 25 2017

NOTE: "FAIR" INDICATES FEW OR NO CLOUDS BELOW 12,000 FEET WITH NO
SIGNIFICANT WEATHER AND/OR OBSTRUCTIONS TO VISIBILITY.


NDZ001>003-009>011-017-260200-
NORTHWEST NORTH DAKOTA

CITY           SKY/WX    TMP DP  RH WIND       PRES   REMARKS
WILLISTON      MOSUNNY   86  43  22 N10       30.01S
MINOT          SUNNY     82  51  34 NW12      29.98R
MINOT AFB      SUNNY     81  53  37 NW13      29.96R
$$

NDZ018>021-031>035-040>046-260200-
SOUTHWEST NORTH DAKOTA

CITY           SKY/WX    TMP DP  RH WIND       PRES   REMARKS
BISMARCK       CLOUDY    83  51  33 NW7       29.98S
DICKINSON      CLOUDY    84  47  27 NW7       30.03S
GARRISON         N/A     83  48  29 N12       29.99R
HETTINGER ARPT CLOUDY    80  51  36 NE3       30.05F
$$

NDZ004>008-012>016-024-026-027-054-260200-
NORTHEAST NORTH DAKOTA

CITY           SKY/WX    TMP DP  RH WIND       PRES   REMARKS
GRAND FORKS    MOSUNNY   80  62  54 W7        29.88S
GRND FRKS AFB  SUNNY     78  59  51 NW7       29.90S
DEVILS LAKE    SUNNY     78  57  48 NW13      29.96R
$$

NDZ022-023-025-028>030-036>039-047>053-260200-
SOUTHEAST NORTH DAKOTA

CITY           SKY/WX    TMP DP  RH WIND       PRES   REMARKS
FARGO          PTCLDY    79  70  74 W5        29.90R
JAMESTOWN      CLOUDY    77  58  51 N7        29.95R
$$





USA.gov is the U.S. government's official web portal to all federal, state and local government web resources and services.